N3PB Weather Reports


time (UTC)temp
C
wind
direction
speed
KPH
gust
KPH
rain 1hr
cm
rain 24hr
cm
rain mn
cm
humidity
%
barometer
mb
20260502170203 12 138 0.0 0.0 0.00 0.00 0.00 47 1012.2
20260502164206 12 290 0.0 0.0 0.00 0.00 0.00 49 1012.2
20260502163703 12 228 0.0 0.0 0.00 0.00 0.00 48 1012.3
20260502163211 12 249 0.0 0.0 0.00 0.00 0.00 51 1012.5
20260502162703 12 219 0.0 0.0 0.00 0.00 0.00 48 1012.5
20260502162212 12 302 0.0 0.0 0.00 0.00 0.00 48 1012.6
20260502161703 12 226 0.0 0.0 0.00 0.00 0.00 50 1012.7
20260502161206 12 196 0.0 0.0 0.00 0.00 0.00 48 1012.6
20260502160702 12 265 0.0 0.0 0.00 0.00 0.00 50 1012.6
20260502160202 12 251 0.0 0.0 0.00 0.00 0.00 48 1012.6
20260502152212 10 284 0.0 0.0 0.00 0.00 0.00 53 1012.9
20260502151706 10 222 0.0 0.0 0.00 0.00 0.00 54 1013.0
20260502151202 10 137 0.0 0.0 0.00 0.00 0.00 55 1012.9
20260502150708 9 56 0.0 0.0 0.00 0.00 0.00 53 1012.9
20260502150203 9 148 0.0 0.0 0.00 0.00 0.00 52 1012.9
20260502130708 6 250 0.0 0.0 0.00 0.00 0.00 61 1013.2
20260502130206 6 211 0.0 0.0 0.00 0.00 0.00 62 1013.1
20260502123702 6 266 0.0 0.0 0.00 0.00 0.00 62 1013.1
20260502123203 6 281 0.0 0.0 0.00 0.00 0.00 63 1013.1
20260502122702 6 93 0.0 0.0 0.00 0.00 0.00 64 1013.3
20260502122205 6 15 0.0 0.0 0.00 0.00 0.00 63 1013.3
20260502121705 6 11 0.0 0.0 0.00 0.00 0.00 66 1013.4
20260502121205 6 11 0.0 0.0 0.00 0.00 0.00 66 1013.1
20260502120702 6 289 0.0 0.0 0.00 0.00 0.00 64 1013.1
20260502120205 6 289 0.0 0.0 0.00 0.00 0.00 64 1013.2
20260502115702 6 211 0.0 0.0 0.00 0.00 0.00 65 1013.2
20260502115206 6 264 0.0 0.0 0.00 0.00 0.00 66 1013.2
20260502114706 6 263 0.0 0.0 0.00 0.00 0.00 67 1013.3
20260502114205 6 244 0.0 0.0 0.00 0.00 0.00 68 1013.3
20260502113702 6 101 0.0 0.0 0.00 0.00 0.00 68 1013.2
20260502113205 6 101 0.0 0.0 0.00 0.00 0.00 68 1013.1
20260502112702 6 101 0.0 0.0 0.00 0.00 0.00 67 1013.0
20260502112205 6 101 0.0 0.0 0.00 0.00 0.00 67 1013.0
20260502111702 6 95 0.0 0.0 0.00 0.00 0.00 68 1013.0
20260502111211 5 109 0.0 0.0 0.00 0.00 0.00 68 1012.9
20260502110708 5 202 0.0 0.0 0.00 0.00 0.00 67 1013.0
20260502110205 5 229 0.0 0.0 0.00 0.00 0.00 68 1013.0
20260502105702 5 230 0.0 0.0 0.00 0.00 0.00 68 1013.0
20260502105211 5 244 0.0 0.0 0.00 0.00 0.00 68 1012.9
20260502104711 6 244 0.0 0.0 0.00 0.00 0.00 68 1012.9
20260502104202 6 261 0.0 0.0 0.00 0.00 0.00 68 1012.9
20260502103702 6 262 0.0 0.0 0.00 0.00 0.00 68 1013.1
20260502103202 6 265 0.0 0.0 0.00 0.00 0.00 69 1013.0
20260502102702 6 265 0.0 0.0 0.00 0.00 0.00 68 1013.2
20260502102202 6 265 0.0 0.0 0.00 0.00 0.00 67 1013.2
20260502101705 6 265 0.0 0.0 0.00 0.00 0.00 67 1013.3
20260502101205 6 281 0.0 0.0 0.00 0.00 0.00 68 1013.4
20260502100703 6 290 0.0 0.0 0.00 0.00 0.00 67 1013.5
20260502100205 6 289 0.0 0.0 0.00 0.00 0.00 67 1013.4
20260502091205 6 202 0.0 0.0 0.00 0.00 0.00 70 1013.8
20260502090705 6 202 0.0 0.0 0.00 0.00 0.00 70 1013.9
20260502090211 6 202 0.0 0.0 0.00 0.00 0.00 70 1014.0
20260502071202 8 176 0.0 0.0 0.00 0.00 0.00 73 1014.1
20260502070705 8 180 0.0 0.0 0.00 0.00 0.00 73 1014.1
20260502070205 8 178 0.0 0.0 0.00 0.00 0.00 73 1014.2
20260502065708 8 178 0.0 0.0 0.00 0.00 0.00 74 1014.3
20260502065205 8 179 0.0 0.0 0.00 0.00 0.00 73 1014.3
20260502064702 8 98 0.0 0.0 0.00 0.00 0.00 74 1014.4
20260502064202 8 139 0.0 0.0 0.00 0.00 0.00 75 1014.4
20260502063702 7 147 0.0 0.0 0.00 0.00 0.00 75 1014.4
20260502063202 7 130 0.0 0.0 0.00 0.00 0.00 76 1014.5
20260502062702 7 119 0.0 0.0 0.00 0.00 0.00 75 1014.6
20260502062205 7 119 0.0 0.0 0.00 0.00 0.00 75 1014.7
20260502061708 7 119 0.0 0.0 0.00 0.00 0.00 75 1014.7
20260502061205 8 119 0.0 0.0 0.00 0.00 0.00 75 1014.7
20260502060705 8 119 0.0 0.0 0.00 0.00 0.00 74 1014.8
20260502060205 8 119 0.0 0.0 0.00 0.00 0.00 74 1014.7
20260502055705 8 119 0.0 0.0 0.00 0.00 0.00 74 1014.8
20260502055201 8 119 0.0 0.0 0.00 0.00 0.00 73 1014.9
20260502054702 8 119 0.0 0.0 0.00 0.00 0.00 73 1014.9
20260502054211 8 119 0.0 0.0 0.00 0.00 0.00 73 1014.7
20260502053702 8 119 0.0 0.0 0.00 0.00 0.00 73 1014.7
20260502053207 8 119 0.0 0.0 0.00 0.00 0.00 72 1014.6
20260502052701 8 119 0.0 0.0 0.00 0.00 0.00 72 1014.7
20260502052201 8 119 0.0 0.0 0.00 0.00 0.00 72 1014.8
20260502051708 8 119 0.0 0.0 0.00 0.00 0.00 71 1014.7
20260502051203 8 119 0.0 0.0 0.00 0.00 0.00 70 1014.6
20260502050701 8 119 0.0 0.0 0.00 0.00 0.00 70 1014.7
20260502050208 8 116 0.0 0.0 0.00 0.00 0.00 70 1014.8
20260502045702 8 113 0.0 0.0 0.00 0.00 0.00 71 1014.8
20260502045204 9 242 0.0 0.0 0.00 0.00 0.00 71 1014.9
20260502044702 9 242 0.0 0.0 0.00 0.00 0.00 71 1014.9
20260502044204 9 242 0.0 0.0 0.00 0.00 0.00 71 1014.9
20260502043702 9 242 0.0 0.0 0.00 0.00 0.00 71 1015.0
20260502043205 9 242 0.0 0.0 0.00 0.00 0.00 71 1014.9
20260502042707 9 241 0.0 0.0 0.00 0.00 0.00 71 1014.9
20260502042201 10 241 0.0 0.0 0.00 0.00 0.00 72 1015.0
20260502041705 10 241 0.0 0.0 0.00 0.00 0.00 72 1014.9
20260502041202 10 241 0.0 0.0 0.00 0.00 0.00 71 1015.0
20260502040701 10 241 0.0 0.0 0.00 0.00 0.00 70 1014.9
20260502040205 10 240 0.0 0.0 0.00 0.00 0.00 71 1014.9
20260502035702 10 242 0.0 0.0 0.00 0.00 0.00 70 1014.9
20260502035201 10 242 0.0 0.0 0.00 0.00 0.00 70 1014.9
20260502034702 10 242 0.0 0.0 0.00 0.00 0.00 70 1014.9
20260502034205 10 242 0.0 0.0 0.00 0.00 0.00 70 1015.0
20260502033711 10 242 0.0 0.0 0.00 0.00 0.00 70 1015.0
20260502033202 10 242 0.0 0.0 0.00 0.00 0.00 70 1015.1
20260502032702 10 242 0.0 0.0 0.00 0.00 0.00 70 1015.1
20260502032201 10 218 0.0 0.0 0.00 0.00 0.00 69 1015.0
20260502031702 11 218 0.0 0.0 0.00 0.00 0.00 69 1014.9
20260502031205 11 269 0.0 0.0 0.00 0.00 0.00 69 1014.9
20260502030701 11 269 0.0 0.0 0.00 0.00 0.00 69 1014.8
20260502030205 11 269 0.0 0.0 0.00 0.00 0.00 68 1014.9
20260502025708 11 269 0.0 0.0 0.00 0.00 0.00 68 1014.8
20260502025201 11 269 0.0 0.0 0.00 0.00 0.00 67 1014.9
20260502024704 11 271 0.0 0.0 0.00 0.00 0.00 67 1014.7
20260502024202 11 271 0.0 0.0 0.00 0.00 0.00 66 1014.9
20260502023707 11 321 0.0 0.0 0.00 0.00 0.00 66 1014.8
20260502023205 12 182 0.0 0.0 0.00 0.00 0.00 65 1014.7
20260502022707 12 181 0.0 0.0 0.00 0.00 0.00 64 1014.7
20260502022202 12 181 0.0 0.0 0.00 0.00 0.00 63 1014.6
20260502021710 12 180 0.0 0.0 0.00 0.00 0.00 63 1014.5
20260502021201 12 180 0.0 0.0 0.00 0.00 0.00 62 1014.4
20260502020704 12 284 0.0 0.0 0.00 0.00 0.00 61 1014.3
20260502020202 12 284 0.0 0.0 0.00 0.00 0.00 61 1013.9
20260502015704 12 284 0.0 0.0 0.00 0.00 0.00 60 1013.8
20260502015201 13 285 0.0 0.0 0.00 0.00 0.00 59 1013.7
20260502014701 13 285 0.0 0.0 0.00 0.00 0.00 57 1013.6
20260502014201 13 280 0.0 0.0 0.00 0.00 0.00 57 1013.5
20260502013704 13 219 0.0 0.0 0.00 0.00 0.00 56 1013.5
20260502013201 13 283 0.0 0.0 0.00 0.00 0.00 56 1013.4
20260502012701 13 283 0.0 0.0 0.00 0.00 0.00 55 1013.4
20260502012202 13 284 0.0 0.0 0.00 0.00 0.00 54 1013.4
20260502011701 13 283 0.0 0.0 0.00 0.00 0.00 54 1013.3
20260502011201 13 271 0.0 0.0 0.00 0.00 0.00 53 1013.0
20260502010704 13 322 0.0 0.0 0.00 0.00 0.00 57 1012.8
20260502010205 13 326 0.0 0.0 0.00 0.00 0.00 57 1012.5
20260502005701 13 326 0.0 0.0 0.00 0.00 0.00 55 1012.4
20260502005207 13 326 0.0 0.0 0.00 0.00 0.00 54 1012.4
20260502004701 13 326 0.0 0.0 0.00 0.00 0.00 54 1012.2
20260502004202 14 327 0.0 0.0 0.00 0.00 0.00 53 1012.1
20260502003701 14 327 0.0 0.0 0.00 0.00 0.00 52 1012.0
20260502003204 15 329 0.0 0.0 0.00 0.00 0.00 50 1011.9
20260502002702 15 257 0.0 0.0 0.00 0.00 0.00 50 1011.7
20260502002205 15 259 0.0 0.0 0.00 0.00 0.00 49 1011.6
20260502001701 15 258 0.0 0.0 0.00 0.00 0.00 52 1011.5
20260502001201 15 258 0.0 0.0 0.00 0.00 0.00 49 1011.5
20260502000702 15 259 0.0 0.0 0.00 0.00 0.00 45 1011.4
20260502000208 15 257 0.0 0.0 0.00 0.00 0.00 45 1011.4
20260501235704 16 256 0.0 0.0 0.00 0.00 0.00 45 1011.2
20260501235201 16 259 0.0 0.0 0.00 0.00 0.00 46 1011.0
20260501234704 16 191 0.0 0.0 0.00 0.00 0.00 48 1010.9
20260501234204 16 290 0.0 0.0 0.00 0.00 0.00 45 1010.9
20260501233701 16 292 0.0 0.0 0.00 0.00 0.00 45 1010.8
20260501233202 16 279 0.0 0.0 0.00 0.00 0.00 46 1010.8
20260501232704 16 299 0.0 0.0 0.00 0.00 0.00 53 1010.8
20260501232202 16 302 0.0 0.0 0.00 0.00 0.00 56 1010.7
20260501231704 16 11 0.0 0.0 0.00 0.00 0.00 57 1010.7
20260501231205 16 332 0.0 0.0 0.00 0.00 0.00 52 1010.6
20260501230701 16 257 0.0 0.0 0.00 0.00 0.00 56 1010.7
20260501230201 16 257 0.0 0.0 0.00 0.00 0.00 55 1010.7
20260501225701 17 257 0.0 0.0 0.00 0.00 0.00 54 1010.7
20260501225208 17 257 0.0 0.0 0.00 0.00 0.00 53 1010.5
20260501224704 17 257 0.0 0.0 0.00 0.00 0.00 52 1010.5
20260501224204 17 257 0.0 0.0 0.00 0.00 0.00 52 1010.3
20260501223704 17 257 0.0 0.0 0.00 0.00 0.00 50 1010.4
20260501223201 17 257 0.0 0.0 0.00 0.00 0.00 50 1010.5
20260501222710 17 257 0.0 0.0 0.00 0.00 0.00 51 1010.5
20260501222210 17 257 0.0 0.0 0.00 0.00 0.00 48 1010.4
20260501221701 17 252 0.0 0.0 0.00 0.00 0.00 47 1010.4
20260501221204 18 277 0.0 0.0 0.00 0.00 0.00 46 1010.5
20260501220701 18 86 0.0 0.0 0.00 0.00 0.00 46 1010.5
20260501220201 18 271 0.0 0.0 0.00 0.00 0.00 46 1010.4
20260501215701 18 301 0.0 0.0 0.00 0.00 0.00 45 1010.4
20260501215201 19 277 0.0 0.0 0.00 0.00 0.00 44 1010.2
20260501214701 19 49 0.0 0.0 0.00 0.00 0.00 45 1010.3
20260501214207 19 351 0.0 0.0 0.00 0.00 0.00 47 1010.3
20260501213701 19 231 0.0 0.0 0.00 0.00 0.00 44 1010.4
20260501213201 19 221 0.0 0.0 0.00 0.00 0.00 44 1010.2
20260501212704 19 114 0.0 0.0 0.00 0.00 0.00 44 1010.3
20260501212204 20 188 0.0 0.0 0.00 0.00 0.00 43 1010.4
20260501211701 20 278 0.0 0.0 0.00 0.00 0.00 43 1010.3
20260501211201 20 229 0.0 0.0 0.00 0.00 0.00 43 1010.3
20260501210701 20 272 0.0 0.0 0.00 0.00 0.00 41 1010.2
20260501210204 20 326 0.0 0.0 0.00 0.00 0.00 42 1010.2
20260501205701 20 291 0.0 0.0 0.00 0.00 0.00 44 1010.1
20260501205210 20 221 0.0 0.0 0.00 0.00 0.00 44 1010.3
20260501204701 20 271 0.0 0.0 0.00 0.00 0.00 43 1010.3
20260501204204 20 146 0.0 0.0 0.00 0.00 0.00 43 1010.4
20260501203701 20 335 0.0 0.0 0.00 0.00 0.00 42 1010.3
20260501203201 20 321 0.0 0.0 0.00 0.00 0.00 43 1010.3
20260501202701 20 45 0.0 0.0 0.00 0.00 0.00 42 1010.5
20260501202204 20 159 0.0 0.0 0.00 0.00 0.00 45 1010.6
20260501201707 20 267 0.0 0.0 0.00 0.00 0.00 43 1010.5
20260501201204 20 252 0.0 0.0 0.00 0.00 0.00 45 1010.6
20260501200701 20 313 0.0 0.0 0.00 0.00 0.00 44 1010.6
20260501200204 20 169 0.0 0.0 0.00 0.00 0.00 41 1010.8
20260501195707 20 286 0.0 0.0 0.00 0.00 0.00 41 1010.8
20260501195201 19 306 0.0 0.0 0.00 0.00 0.00 41 1010.9
20260501194701 19 252 0.0 0.0 0.00 0.00 0.00 45 1010.7
20260501194201 19 259 0.0 0.0 0.00 0.00 0.00 41 1010.8
20260501193701 19 314 0.0 0.0 0.00 0.00 0.00 42 1011.0
20260501193207 19 113 0.0 0.0 0.00 0.00 0.00 41 1011.1
20260501192701 19 269 0.0 0.0 0.00 0.00 0.00 42 1011.1
20260501192204 19 199 0.0 0.0 0.00 0.00 0.00 48 1011.2
20260501191701 19 26 0.0 0.0 0.00 0.00 0.00 43 1011.2
20260501191204 18 232 0.0 0.0 0.00 0.00 0.00 50 1011.3
20260501190704 18 229 0.0 0.0 0.00 0.00 0.00 43 1011.4
20260501190210 18 93 0.0 0.0 0.00 0.00 0.00 43 1011.6
20260501185704 18 270 0.0 0.0 0.00 0.00 0.00 42 1011.4
20260501185204 18 261 0.0 0.0 0.00 0.00 0.00 44 1011.5
20260501184701 19 315 0.0 0.0 0.00 0.00 0.00 37 1011.5
20260501184201 19 34 0.0 0.0 0.00 0.00 0.00 42 1011.6
20260501183701 19 76 0.0 0.0 0.00 0.00 0.00 41 1011.6
20260501183201 19 351 0.0 0.0 0.00 0.00 0.00 45 1011.6
20260501182701 18 193 0.0 0.0 0.00 0.00 0.00 39 1011.7
20260501182204 18 192 0.0 0.0 0.00 0.00 0.00 42 1011.7
20260501181701 18 84 0.0 0.0 0.00 0.00 0.00 43 1011.6
20260501181201 18 76 0.0 0.0 0.00 0.00 0.00 48 1011.6
20260501180704 18 282 0.0 0.0 0.00 0.00 0.00 47 1011.7
20260501180207 17 300 0.0 0.0 0.00 0.00 0.00 43 1011.8
20260501175704 17 220 0.0 0.0 0.00 0.00 0.00 43 1012.0
20260501175204 17 5 0.0 0.0 0.00 0.00 0.00 42 1012.0
20260501174701 17 259 0.0 0.0 0.00 0.00 0.00 47 1012.0
20260501174210 17 241 0.0 0.0 0.00 0.00 0.00 43 1012.0
20260501173701 17 95 0.0 0.0 0.00 0.00 0.00 44 1012.0
20260501173204 17 36 0.0 0.0 0.00 0.00 0.00 53 1012.0
20260501172701 17 242 0.0 0.0 0.00 0.00 0.00 51 1012.1
20260501172204 17 296 0.0 0.0 0.00 0.00 0.00 46 1012.4
20260501171701 17 51 0.0 0.0 0.00 0.00 0.00 44 1012.4